SCP
0 0 0 0 0 0 -0 -0 0 0 0 0 0 0 0 0 0 0 0 0 0 0 0 0 0 0 0 0 0 0 0 0
0 -0 0 -0 -0 -0 0 0 0 0 0 0 0 0 0 0 0 0 0 0 0 0 0 0 0 0 0 0 0 0 0 0
0 -0 -0 -0 -0 -0 0 0 0 0 0 0 0 0 0 0 0 0 0 0 0 0 0 0 0 0 0 0 0 0 0 0
0 -0 -0 -0 -0 -0 -0 0 0 0 0 0 0 -0 0 0 0 0 0 0 0 0 0 0 0 0 0 -0 0 0 0 0
-0 -0 -0 -0 -0 -0 -0 -0 0 0 0 0 -0 -0 0 0 0 0 0 0 0 0 0 0 0 0 0 0 0 0 0 0
-0 -0 0 -0 -0 -0 -0 0 -0 0 0 0 0 -0 0 0 0 0 0 0 0 0 0 0 0 0 0 0 0 0 0 0
-0 -0 -0 -0 -0 -0 0 0 0 0 0 0 0 0 0 0 0 0 0 0 0 0 0 0 0 0 0 0 0 0 0 0
-0 -0 0 0 -0 0 0 0 0 0 0 0 0 0 0 0 0 0 0 0 0 0 0 0 0 0 0 0 0 -0 -0 0
0 -0 -0 -0 -0 0 0 0 0 0 0 0 0 0 0 0 0 0 0 0 0 0 0 0 0 0 -0 -0 -0 -0 0 -0
-0 0 -0 -0 0 0 0 0 0 0 0 0 0 0 0 0 -0 -0 -0 -0 -0 0 0 0 0 0 0 -0 -0 0 0 -0
0 -0 0 -0 0 0 0 0 0 0 0 0 0 -0 -0 -0 -0 -0 -0 -0 -0 0 0 0 0 0 -0 0 0 -0 0 0
0 -0 0 0 0 0 -0 0 0 0 0 0 -0 -0 -0 -0 -0 0 -0 -0 0 0 0 -0 -0 0 0 0 -0 -0 -0 -0
0 0 0 0 0 0 0 0 0 0 0 0 -0 -0 -0 -0 0 -0 0 0 0 -0 -0 -0 -0 -0 -0 -0 -0 -0 -0 -0
0 0 0 0 0 0 0 0 0 0 0 0 0 -0 -0 0 0 0 0 0 -0 0 0 0 0 0 0 -0 -0 -0 -0 0
0 0 0 0 0 0 0 0 0 0 0 0 0 0 0 0 0 0 0 0 0 0 0 0 0 0 0 0 0 -0 0 0
0 0 0 0 0 0 0 0 0 0 0 0 0 0 0 0 0 0 0 0 0 0 0 0 0 0 0 0 0 0 0 0
0 0 0 0 0 0 0 0 0 0 0 0 0 0 0 0 0 0 0 0 0 0 0 0 0 0 0 0 0 0 0 0
0 0 0 0 0 0 0 0 0 0 0 0 0 0 0 0 0 0 0 0 0 0 0 0 0 0 0 0 0 0 0 0
0 0 0 0 0 0 0 0 0 0 0 0 0 0 0 0 0 0 0 0 0 0 0 0 0 0 0 0 0 0 0 0
0 0 0 0 0 0 0 0 0 0 0 0 0 0 0 0 0 0 0 0 0 0 0 0 0 0 0 0 0 0 0 0
Wind_Speed_500mb
29 32 30 32 31 27 23 19 37 34 30 28 28 33 40 41 45 48 41 38 34 37 31 30 31 36 34 40 45 46 51 53
32 29 31 31 35 37 32 32 36 31 31 33 38 42 46 48 48 40 35 28 28 27 30 32 27 25 24 27 33 37 39 37
41 36 35 33 32 37 27 22 24 25 23 31 38 42 42 38 39 31 25 25 21 20 21 21 16 13 11 20 31 37 38 39
47 52 51 47 41 34 37 26 20 20 19 25 35 38 33 32 28 26 26 19 14 14 12 9 4 6 15 27 36 46 52 49
51 65 58 51 43 39 48 45 36 29 25 27 31 36 27 22 23 23 15 10 10 11 5 8 23 30 29 39 42 36 37 33
69 57 51 42 47 45 43 37 37 34 33 28 26 31 22 19 16 12 3 4 9 16 28 32 35 39 37 34 30 32 39 38
56 52 50 47 40 38 38 33 28 28 28 21 23 23 15 12 8 3 9 11 27 36 41 44 45 45 38 35 38 33 36 37
60 58 51 44 37 34 30 27 23 19 12 18 18 12 10 11 7 11 24 34 43 42 46 48 50 49 40 37 33 33 37 36
62 55 53 47 38 31 31 27 22 10 15 9 8 3 6 9 17 31 40 43 44 48 50 51 48 38 41 36 29 34 34 33
55 58 53 42 43 31 24 20 10 15 7 2 5 9 17 26 35 47 43 44 46 51 53 51 45 44 44 39 40 49 48 48
69 47 38 49 22 20 17 12 16 16 13 13 19 28 37 54 51 48 51 46 49 55 55 53 48 50 49 48 52 51 50 52
59 53 35 27 17 18 19 25 24 22 27 28 33 47 68 57 50 60 53 54 56 56 55 52 50 55 52 48 47 46 47 52
43 34 26 19 16 26 29 34 37 26 35 42 53 63 65 63 60 59 60 57 54 45 44 51 57 55 51 47 48 50 50 50
35 25 19 24 34 38 38 43 39 39 52 57 59 69 71 74 73 71 63 55 57 59 56 55 55 54 48 45 44 43 41 43
27 28 37 49 52 49 50 46 40 54 56 62 72 78 75 78 77 71 71 61 58 52 50 52 54 49 44 44 41 42 46 50
39 57 60 61 60 53 48 45 54 58 63 72 79 81 81 80 65 58 58 60 60 56 51 50 45 40 37 36 42 47 50 50
50 58 59 55 55 53 50 55 61 66 76 79 83 83 75 60 55 55 55 58 59 53 50 48 44 42 43 44 46 51 44 40
48 53 54 55 56 55 54 56 64 73 79 85 81 82 65 58 56 58 57 52 49 44 40 37 34 40 50 50 45 42 43 43
44 51 53 54 56 53 56 61 71 85 88 84 75 61 63 58 57 55 53 51 55 53 49 40 36 48 50 40 38 41 45 45
50 54 52 52 54 57 66 74 83 84 86 76 67 63 59 58 58 58 58 59 58 54 51 45 47 50 44 44 49 52 52 52
Wind_Direction_500mb
344 343 343 348 335 318 316 320 309 323 336 343 341 334 327 321 299 297 306 314 327 332 343 326 313 306 279 269 237 214 203 192
330 329 330 329 330 325 295 278 294 298 309 318 323 322 323 322 320 310 324 329 334 332 322 321 322 304 287 252 216 185 167 156
325 325 321 318 319 323 321 292 278 287 299 308 307 314 322 319 323 325 332 330 328 321 311 303 296 272 229 186 165 147 139 120
317 320 312 306 306 307 307 311 301 309 310 305 310 323 321 319 317 325 334 325 308 303 298 294 245 162 158 151 135 117 115 109
311 311 305 300 301 300 297 297 293 291 308 324 323 330 318 315 314 335 331 334 347 344 32 98 107 104 106 102 106 104 100 103
308 306 301 297 299 296 296 295 285 282 292 319 327 333 320 306 311 324 331 31 59 99 109 106 107 99 102 100 99 102 95 96
300 300 295 296 294 294 293 293 291 283 284 314 331 336 309 280 277 197 109 108 116 106 97 95 96 96 94 75 82 91 109 107
301 305 298 292 291 293 291 288 292 295 307 297 323 333 300 239 185 130 132 124 110 107 101 98 94 89 81 86 101 109 119 99
303 298 296 292 297 292 288 286 288 280 228 286 332 316 227 168 136 137 129 113 108 106 102 97 90 86 73 82 108 111 99 98
299 298 292 288 293 286 275 264 243 192 176 248 182 156 148 139 140 130 120 116 105 101 98 84 76 79 90 96 104 101 102 93
303 296 274 289 271 241 229 194 185 149 184 162 153 138 136 135 131 122 113 104 104 94 92 93 99 97 100 98 91 89 90 93
294 294 284 276 241 200 179 171 148 174 156 151 141 139 135 126 119 113 109 105 98 97 102 100 99 100 95 92 91 90 88 87
298 287 270 245 196 172 169 162 183 156 153 143 141 136 127 124 114 106 105 100 102 107 98 97 97 96 91 90 88 85 82 80
294 267 220 181 163 160 160 168 178 161 147 148 141 134 129 125 116 115 106 103 106 100 101 102 98 90 87 82 80 82 85 88
289 196 161 154 154 158 165 170 169 159 150 144 140 133 129 124 122 119 118 111 107 99 98 93 89 88 87 81 78 88 91 85
115 132 141 150 157 156 157 160 158 152 145 142 141 134 131 129 121 116 114 115 110 104 92 86 85 91 88 82 93 87 75 69
129 135 141 142 143 149 152 151 151 147 143 146 137 133 129 125 122 120 119 117 112 103 97 92 86 87 90 88 84 75 70 65
123 128 135 142 141 144 145 148 147 141 143 141 139 136 128 123 122 121 118 113 106 100 94 84 81 87 80 75 76 77 75 71
130 131 134 136 137 141 144 145 142 139 139 138 133 128 127 123 122 120 114 110 106 98 88 81 88 87 82 81 80 79 78 76
123 129 132 131 132 139 141 143 142 139 138 135 131 127 126 123 120 117 112 107 102 95 91 92 94 90 90 85 85 81 74 69
Wind_Speed_850mb
29 32 30 32 31 27 23 19 37 34 30 28 28 33 40 41 45 48 41 38 34 37 31 30 31 36 34 40 45 46 51 53
32 29 31 31 35 37 32 32 36 31 31 33 38 42 46 48 48 40 35 28 28 27 30 32 27 25 24 27 33 37 39 37
41 36 35 33 32 37 27 22 24 25 23 31 38 42 42 38 39 31 25 25 21 20 21 21 16 13 11 20 31 37 38 39
47 52 51 47 41 34 37 26 20 20 19 25 35 38 33 32 28 26 26 19 14 14 12 9 4 6 15 27 36 46 52 49
51 65 58 51 43 39 48 45 36 29 25 27 31 36 27 22 23 23 15 10 10 11 5 8 23 30 29 39 42 36 37 33
69 57 51 42 47 45 43 37 37 34 33 28 26 31 22 19 16 12 3 4 9 16 28 32 35 39 37 34 30 32 39 38
56 52 50 47 40 38 38 33 28 28 28 21 23 23 15 12 8 3 9 11 27 36 41 44 45 45 38 35 38 33 36 37
60 58 51 44 37 34 30 27 23 19 12 18 18 12 10 11 7 11 24 34 43 42 46 48 50 49 40 37 33 33 37 36
62 55 53 47 38 31 31 27 22 10 15 9 8 3 6 9 17 31 40 43 44 48 50 51 48 38 41 36 29 34 34 33
55 58 53 42 43 31 24 20 10 15 7 2 5 9 17 26 35 47 43 44 46 51 53 51 45 44 44 39 40 49 48 48
69 47 38 49 22 20 17 12 16 16 13 13 19 28 37 54 51 48 51 46 49 55 55 53 48 50 49 48 52 51 50 52
59 53 35 27 17 18 19 25 24 22 27 28 33 47 68 57 50 60 53 54 56 56 55 52 50 55 52 48 47 46 47 52
43 34 26 19 16 26 29 34 37 26 35 42 53 63 65 63 60 59 60 57 54 45 44 51 57 55 51 47 48 50 50 50
35 25 19 24 34 38 38 43 39 39 52 57 59 69 71 74 73 71 63 55 57 59 56 55 55 54 48 45 44 43 41 43
27 28 37 49 52 49 50 46 40 54 56 62 72 78 75 78 77 71 71 61 58 52 50 52 54 49 44 44 41 42 46 50
39 57 60 61 60 53 48 45 54 58 63 72 79 81 81 80 65 58 58 60 60 56 51 50 45 40 37 36 42 47 50 50
50 58 59 55 55 53 50 55 61 66 76 79 83 83 75 60 55 55 55 58 59 53 50 48 44 42 43 44 46 51 44 40
48 53 54 55 56 55 54 56 64 73 79 85 81 82 65 58 56 58 57 52 49 44 40 37 34 40 50 50 45 42 43 43
44 51 53 54 56 53 56 61 71 85 88 84 75 61 63 58 57 55 53 51 55 53 49 40 36 48 50 40 38 41 45 45
50 54 52 52 54 57 66 74 83 84 86 76 67 63 59 58 58 58 58 59 58 54 51 45 47 50 44 44 49 52 52 52
Wind_Direction_850mb
344 343 343 348 335 318 316 320 309 323 336 343 341 334 327 321 299 297 306 314 327 332 343 326 313 306 279 269 237 214 203 192
330 329 330 329 330 325 295 278 294 298 309 318 323 322 323 322 320 310 324 329 334 332 322 321 322 304 287 252 216 185 167 156
325 325 321 318 319 323 321 292 278 287 299 308 307 314 322 319 323 325 332 330 328 321 311 303 296 272 229 186 165 147 139 120
317 320 312 306 306 307 307 311 301 309 310 305 310 323 321 319 317 325 334 325 308 303 298 294 245 162 158 151 135 117 115 109
311 311 305 300 301 300 297 297 293 291 308 324 323 330 318 315 314 335 331 334 347 344 32 98 107 104 106 102 106 104 100 103
308 306 301 297 299 296 296 295 285 282 292 319 327 333 320 306 311 324 331 31 59 99 109 106 107 99 102 100 99 102 95 96
300 300 295 296 294 294 293 293 291 283 284 314 331 336 309 280 277 197 109 108 116 106 97 95 96 96 94 75 82 91 109 107
301 305 298 292 291 293 291 288 292 295 307 297 323 333 300 239 185 130 132 124 110 107 101 98 94 89 81 86 101 109 119 99
303 298 296 292 297 292 288 286 288 280 228 286 332 316 227 168 136 137 129 113 108 106 102 97 90 86 73 82 108 111 99 98
299 298 292 288 293 286 275 264 243 192 176 248 182 156 148 139 140 130 120 116 105 101 98 84 76 79 90 96 104 101 102 93
303 296 274 289 271 241 229 194 185 149 184 162 153 138 136 135 131 122 113 104 104 94 92 93 99 97 100 98 91 89 90 93
294 294 284 276 241 200 179 171 148 174 156 151 141 139 135 126 119 113 109 105 98 97 102 100 99 100 95 92 91 90 88 87
298 287 270 245 196 172 169 162 183 156 153 143 141 136 127 124 114 106 105 100 102 107 98 97 97 96 91 90 88 85 82 80
294 267 220 181 163 160 160 168 178 161 147 148 141 134 129 125 116 115 106 103 106 100 101 102 98 90 87 82 80 82 85 88
289 196 161 154 154 158 165 170 169 159 150 144 140 133 129 124 122 119 118 111 107 99 98 93 89 88 87 81 78 88 91 85
115 132 141 150 157 156 157 160 158 152 145 142 141 134 131 129 121 116 114 115 110 104 92 86 85 91 88 82 93 87 75 69
129 135 141 142 143 149 152 151 151 147 143 146 137 133 129 125 122 120 119 117 112 103 97 92 86 87 90 88 84 75 70 65
123 128 135 142 141 144 145 148 147 141 143 141 139 136 128 123 122 121 118 113 106 100 94 84 81 87 80 75 76 77 75 71
130 131 134 136 137 141 144 145 142 139 139 138 133 128 127 123 122 120 114 110 106 98 88 81 88 87 82 81 80 79 78 76
123 129 132 131 132 139 141 143 142 139 138 135 131 127 126 123 120 117 112 107 102 95 91 92 94 90 90 85 85 81 74 69